Content
SEND FEEDBACK

Daily
Averages
Monthly
Summary
United States of America

WAHWEAP, ARIZONA


Home > North America > United States > Arizona
Elevation: 3703 feet     Latitude: 36 59N     Longitude: 111 29W

WEATHER
 
SELECT A DAY
Number of Records: 197,748;   Date Range: 1/1/95 - 11/25/14
 
SHARE

PRINT THIS DATA

[ ← Previous Day ]
WEATHER ALMANAC - JANUARY 16, 2013
[ Next Day → ]
[ °C ]   °F
Weather ElementAverageHighLow
Temperature26.7 °F36 °F (3:53 pm)18 °F (7:53 am)
Dewpoint6.2 °F9 °F (10:53 pm)1.9 °F (3:53 am)
Humidity42.6 %54 % (6:53 am)30 % (3:53 pm)
Barometer30.54 in30.61 in (9:53 am)30.44 in (12:53 pm)
Wind Speed1.5 mph5.8 mph (7:53 am)
Weather ElementAverage
Visibility9 mi
Wind DirectionENE (70 °)

Weather ElementTotal
Precipitation---
Heating Degree Days38 (Base 65)
Averaged from 23 records on January 16, 2013
WEATHER CONDITIONS BREAKOUT
WIND DIRECTION BREAKOUT
WEATHER BY HOUR - JANUARY 16, 2013
[ °C ]   °F
Local TimeTemperatureDewpointHumidityBarometerVisibilityWind DirectionWind SpeedGust SpeedPrecipitationEventsConditions
1:53 AM21.0 °F3.0 °F46 %30.56 in8.0 miCalmClear
2:53 AM19.9 °F3.0 °F48 %30.56 in9.0 miCalmClear
3:53 AM19.0 °F1.9 °F47 %30.55 in10.0 miSE (140°)4.6 mphClear
4:53 AM19.0 °F3.0 °F50 %30.55 in10.0 miCalmClear
5:53 AM19.9 °F3.9 °F50 %30.56 in9.0 miCalmClear
6:53 AM19.0 °F5.0 °F54 %30.59 in8.0 miCalmClear
7:53 AM18.0 °F3.0 °F52 %30.60 in10.0 miSSE (160°)5.8 mphClear
8:53 AM24.1 °F3.9 °F42 %30.60 in10.0 miNNW (330°)3.5 mphClear
9:53 AM26.1 °F7.0 °F44 %30.61 in10.0 miCalmClear
10:53 AM28.9 °F7.0 °F40 %30.59 in10.0 miCalmClear
11:53 AM32.0 °F6.8 °F35 %30.48 in10.0 miVariable4.6 mphClear
12:53 PM33.8 °F8.6 °F35 %30.44 in10.0 miENE (70°)4.6 mphClear
1:53 PM33.1 °F6.1 °F32 %30.49 in10.0 miCalmClear
2:53 PM35.1 °F7.0 °F31 %30.48 in10.0 miNorth (360°)4.6 mphClear
3:53 PM36.0 °F7.0 °F30 %30.49 in10.0 miNNW (340°)3.5 mphClear
4:53 PM35.1 °F8.1 °F33 %30.50 in10.0 miCalmClear
5:53 PM32.0 °F8.1 °F37 %30.51 in10.0 miCalmClear
6:53 PM30.0 °F8.1 °F40 %30.52 in7.0 miCalmClear
7:53 PM28.9 °F8.1 °F41 %30.54 in10.0 miSSW (210°)3.5 mphClear
8:53 PM28.0 °F8.1 °F43 %30.53 in6.0 miCalmHaze
9:53 PM27.0 °F8.1 °F45 %30.53 in7.0 miCalmClear
10:53 PM25.0 °F9.0 °F51 %30.53 in10.0 miCalmClear
11:53 PM24.1 °F9.0 °F53 %30.54 in4.0 miCalmHaze
Hourly data recorded from KPGA, located miles away from Wahweap, Arizona







STORIES FROM OUR PARTNERS